Location: Fuglau
(48.6333°N, 15.5500°E)
Time: 08:55:20
(UTC+00:00)

STARLINK-68 - Pass Details

Date: 27 February 2020
Orbit: 529 x 530 km, 53.0° (Epoch: 01 April)

Event Time Altitude Azimuth Distance (km) Brightness Sun altitude
Rises 17:41:36 0° 278° (W) 2,668 9.2 -11.4°
Reaches altitude 10° 17:43:54 10° 285° (WNW) 1,779 7.6 -11.8°
Maximum altitude 17:47:46 44° 358° (N) 748 4.3 -12.4°
Enters shadow 17:50:30 18° 65° (ENE) 1,367 5.1 -12.8°
